Погода в Джордж Таун

Багамские острова     23°32′03″N   75°47′43″W
темп.,
°C
ветер,
м/с
пор.,
м/с
влажн.,
%
обл.,
%
осадки,
мм/ч
давл.,
гПа
погр.,
м
7 марта, вс
вс701:00+25ю78777 0.0 1014561
04:00+25ююз810820 0.1 1013917
07:00+25зюз78811 1.3 1014872
10:00+25з78773 0.0 1017932
13:00+25з89814 0.2 1016822
16:00+24ссз9108020 0.9 1015782
19:00+24ссз9107413 0.9 1018997
22:00+23ссв1314770 0.0 10201124
8 марта, пн
пн801:00+22ссв1213750 0.0 10201163
04:00+22ссв1112700 0.0 10211321
07:00+22ссв1111670 0.1 10231358
10:00+21ссв1010673 0.0 10251317
13:00+21ссв1010674 0.0 10241327
16:00+22св1111667 0.0 10231381
19:00+22св1113684 0.1 10241539
22:00+22всв12137140 0.2 10251545
9 марта, вт
вт901:00+22всв13147459 1.0 10241388
04:00+22св14157672 1.0 10241309
07:00+22св14157786 2.1 10251258
10:00+22св141676100 0.5 10271245
13:00+22всв13147599 0.8 10251250
16:00+22всв13147477 0.2 10241202
19:00+22всв12136951 0.3 10251341
22:00+22всв11127011 0.2 10251478
10 марта, ср
ср1001:00+22всв11126826 0.4 10241475
04:00+22всв12136813 0.1 10231358
07:00+22всв1213697 0.2 10241495
10:00+22всв12126726 0.1 10251466
13:00+23всв12137216 0.1 10231177
16:00+23всв1213740 0.1 10211103
19:00+23всв1314750 0.2 10221123
22:00+23всв11127421 0.3 10231115
11 марта, чт
чт1101:00+23всв12137511 0.3 10221135
04:00+23всв1112750 0.1 10211083
07:00+23всв1214780 0.3 10211069
10:00+23всв1214796 0.3 10231062
13:00+23всв1214784 0.4 10211081
16:00+23всв13147746 0.3 10201112
19:00+23всв12147635 0.3 10211140
22:00+24всв1213753 0.0 10211160